User: anonymous   Login
Location: Allen Lane School
(37.8198°N, 89.7382°W)
Time: 08:58:48
(UTC+00:00)
Language:

Cosmos 1833 Rocket - Orbit

View from above orbital plane
View from above orbital plane
View from above satellite
View from above satellite

Ground track
Ground track

The orbit data is extracted from the following two-line orbital elements,

1 17590U 87027B   22147.89270986  .00000092  00000-0  69841-4 0  9994
2 17590  71.0030 307.3479 0003132  55.1732 304.9686 14.16826620819640
Epoch (UTC): 27 May 2022 21:25:30
Eccentricity: 0.0003132
inclination: 71.0030°
perigee height: 834 km
apogee height: 838 km
right ascension of ascending node: 307.3479°
argument of perigee: 55.1732°
revolutions per day: 14.16826620
mean anomaly at epoch: 304.9686°
orbit number at epoch: 81964

The dashed part of the orbit path shows where the satellite is in the earth's shadow,  

DLR